This demonstration page uses our WeatherBlox Daily Observations layout. Learn more.

Left ArrowRight Arrow

Hourly Observations for August 4, 2015

Temp ( °F °C ) Dew Point ( °F °C ) Humidity (%) Winds ( mph kmh ) Pressure ( in mb ) Visibility ( mi km ) Precip ( " mm )
12:15 am 00:15 Clear 70 21 64 18 83 83 E 8 13 29.88 1012 10 16 0.00 0.00
12:35 am 00:35 Clear 70 21 64 18 83 83 E 8 13 29.88 1012 10 16 0.00 0.00
12:55 am 00:55 Clear 68 20 64 18 88 88 E 7 11 29.88 1012 10 16 0.00 0.00
1:15 am 01:15 Partly Cloudy 68 20 64 18 88 88 E 6 9 29.88 1012 10 16 0.00 0.00
1:35 am 01:35 Partly Cloudy 68 20 64 18 88 88 E 7 11 29.88 1012 10 16 0.00 0.00
1:55 am 01:55 Mostly Clear 68 20 64 18 88 88 E 7 11 29.88 1012 8 13 0.00 0.00
2:15 am 02:15 Partly Cloudy 68 20 64 18 88 88 E 7 11 29.88 1012 7 11 0.00 0.00
2:35 am 02:35 Mostly Cloudy 68 20 64 18 88 88 E 6 9 29.85 1011 6 10 0.00 0.00
2:55 am 02:55 Cloudy 68 20 64 18 88 88 ESE 7 11 29.85 1011 8 13 0.00 0.00
3:15 am 03:15 Cloudy 70 21 64 18 83 83 SE 9 15 29.85 1011 10 16 0.00 0.00
3:35 am 03:35 Cloudy 70 21 64 18 83 83 SE 10 17 29.83 1010 7 11 0.00 0.00
3:55 am 03:55 Cloudy 68 20 64 18 88 88 SSE 10 17 29.83 1010 5 8 0.00 0.00
4:15 am 04:15 Cloudy 68 20 66 19 94 94 SE 8 13 29.85 1011 3 5 0.00 0.00
4:35 am 04:35 Cloudy 68 20 66 19 94 94 ESE 7 11 29.85 1011 2 3 0.00 0.00
4:55 am 04:55 Cloudy 68 20 66 19 94 94 E 8 13 29.85 1011 1 2 0.00 0.00
5:15 am 05:15 Cloudy 68 20 66 19 94 94 E 9 15 29.85 1011 1 1 0.00 0.00
5:35 am 05:35 Cloudy 68 20 66 19 94 94 ESE 10 17 29.85 1011 1 1 0.00 0.00
5:55 am 05:55 Cloudy 68 20 66 19 94 94 E 9 15 29.85 1011 1 1 0.00 0.00
6:15 am 06:15 Cloudy 68 20 66 19 94 94 ENE 13 20 29.88 1012 1 1 0.00 0.00
6:35 am 06:35 Cloudy 68 20 66 19 94 94 NE 15 24 29.88 1012 1 1 0.00 0.00
6:55 am 06:55 Cloudy 66 19 64 18 94 94 ENE 14 22 29.94 1014 2 2 0.00 0.00
7:15 am 07:15 Cloudy 66 19 63 17 88 88 E 13 20 29.94 1014 4 6 0.00 0.00
7:35 am 07:35 Cloudy 66 19 64 18 94 94 E 14 22 29.94 1014 5 8 0.00 0.00
7:55 am 07:55 Cloudy 66 19 64 18 94 94 E 14 22 29.94 1014 8 13 0.00 0.00
8:15 am 08:15 Cloudy 68 20 64 18 88 88 E 15 24 29.91 1013 10 16 0.00 0.00
8:35 am 08:35 Cloudy 68 20 64 18 88 88 E 12 19 29.94 1014 10 16 0.00 0.00
8:55 am 08:55 Cloudy 68 20 63 17 83 83 E 14 22 29.94 1014 10 16 0.00 0.00
9:15 am 09:15 Cloudy 70 21 63 17 78 78 E 17 28 29.94 1014 10 16 0.00 0.00
9:35 am 09:35 Cloudy 70 21 64 18 83 83 E 17 28 29.94 1014 10 16 0.00 0.00
9:55 am 09:55 Cloudy 70 21 64 18 83 83 E 14 22 29.94 1014 10 16 0.00 0.00
10:15 am 10:15 Cloudy 72 22 64 18 78 78 E 13 20 29.91 1013 10 16 0.00 0.00
10:35 am 10:35 Cloudy 73 23 64 18 74 74 E 16 26 29.91 1013 10 16 0.00 0.00
10:55 am 10:55 Partly Cloudy 75 24 64 18 69 69 E 18 30 29.88 1012 10 16 0.00 0.00
11:15 am 11:15 Sunny 75 24 63 17 65 65 E 17 28 29.85 1011 10 16 0.00 0.00
11:35 am 11:35 Sunny 75 24 61 16 61 61 E 16 26 29.85 1011 10 16 0.00 0.00
11:55 am 11:55 Sunny 75 24 63 17 65 65 E 17 28 29.85 1011 10 16 0.00 0.00
12:15 pm 12:15 Sunny 73 23 61 16 65 65 E 20 31 29.85 1011 10 16 0.00 0.00
12:35 pm 12:35 Sunny 73 23 61 16 65 65 E 15 24 29.85 1011 10 16 0.00 0.00
12:55 pm 12:55 Sunny 73 23 63 17 69 69 E 16 26 29.85 1011 10 16 0.00 0.00
1:15 pm 13:15 Partly Cloudy 75 24 64 18 69 69 E 18 30 29.85 1011 10 16 0.00 0.00
1:35 pm 13:35 Partly Cloudy 79 26 64 18 61 61 E 17 28 29.85 1011 10 16 0.00 0.00
1:55 pm 13:55 Mostly Sunny 79 26 66 19 65 65 ESE 14 22 29.83 1010 10 16 0.00 0.00
2:15 pm 14:15 Sunny 79 26 66 19 65 65 SE 17 28 29.83 1010 10 16 0.00 0.00
2:35 pm 14:35 Sunny 79 26 66 19 65 65 SE 13 20 29.83 1010 10 16 0.00 0.00
2:55 pm 14:55 Partly Cloudy 79 26 68 20 70 70 ESE 14 22 29.83 1010 10 16 0.00 0.00
3:15 pm 15:15 Mostly Sunny 79 26 68 20 70 70 ESE 15 24 29.83 1010 10 16 0.00 0.00
3:35 pm 15:35 Mostly Sunny 79 26 70 21 74 74 SE 13 20 29.83 1010 10 16 0.00 0.00
3:55 pm 15:55 Mostly Sunny 81 27 70 21 70 70 SE 13 20 29.80 1009 10 16 0.00 0.00
4:15 pm 16:15 Sunny 79 26 68 20 70 70 SE 10 17 29.83 1010 10 16 0.00 0.00
4:35 pm 16:35 Partly Cloudy 79 26 68 20 70 70 S 12 19 29.83 1010 10 16 0.00 0.00
4:55 pm 16:55 Mostly Cloudy with Thunderstorms 70 21 61 16 73 73 SSW 23 37 29.88 1012 3 4 0.13 3.30
5:15 pm 17:15 Mostly Cloudy with Thunderstorms 63 17 59 15 88 88 S 25 41 29.91 1013 5 8 0.00 0.00
5:35 pm 17:35 Cloudy with Thunderstorms 64 18 59 15 83 83 SSW 18 30 29.88 1012 9 14 0.29 7.37
5:55 pm 17:55 Cloudy with Thunderstorms 64 18 59 15 83 83 SSW 15 24 29.88 1012 10 16 0.30 7.62
6:15 pm 18:15 Cloudy with Nearby Thunderstorms 64 18 61 16 88 88 S 9 15 29.88 1012 10 16 0.00 0.00
6:35 pm 18:35 Cloudy 64 18 61 16 88 88 SE 13 20 29.91 1013 10 16 0.08 2.03
6:55 pm 18:55 Cloudy 64 18 61 16 88 88 ESE 12 19 29.91 1013 8 13 0.16 4.06
7:15 pm 19:15 Cloudy 64 18 61 16 88 88 ESE 7 11 29.91 1013 7 11 0.00 0.00
7:35 pm 19:35 Cloudy 64 18 61 16 88 88 E 6 9 29.88 1012 9 14 0.11 2.79
7:55 pm 19:55 Cloudy 64 18 61 16 88 88 ESE 8 13 29.88 1012 10 16 0.13 3.30
8:15 pm 20:15 Cloudy 64 18 61 16 88 88 WSW 15 24 29.88 1012 10 16 0.00 0.00
8:35 pm 20:35 Cloudy 64 18 61 16 88 88 SW 13 20 29.88 1012 10 16 0.00 0.00
8:55 pm 20:55 Cloudy 64 18 61 16 88 88 WSW 9 15 29.88 1012 10 16 0.00 0.00
9:15 pm 21:15 Cloudy 64 18 61 16 88 88 WSW 7 11 29.88 1012 10 16 0.00 0.00
9:35 pm 21:35 Cloudy 64 18 61 16 88 88 WNW 5 7 29.91 1013 10 16 0.00 0.00
9:55 pm 21:55 Cloudy 64 18 61 16 88 88 NE 7 11 29.94 1014 10 16 0.00 0.00
10:15 pm 22:15 Mostly Cloudy 64 18 61 16 88 88 E 6 9 29.94 1014 10 16 0.00 0.00
10:35 pm 22:35 Cloudy 64 18 61 16 88 88 SE 3 6 29.94 1014 10 16 0.00 0.00
10:55 pm 22:55 Cloudy 64 18 61 16 88 88 Calm 29.94 1014 10 16 0.00 0.00
11:15 pm 23:15 Cloudy 64 18 61 16 88 88 ENE 6 9 29.94 1014 10 16 0.00 0.00
11:35 pm 23:35 Mostly Cloudy 64 18 61 16 88 88 SSW 5 7 29.94 1014 10 16 0.00 0.00
11:55 pm 23:55 Mostly Clear 64 18 61 16 88 88 NNE 8 13 29.94 1014 10 16 0.00 0.00

Powered by AerisWeather